Regional Weather Roundup
Issued by NWS Sioux Falls, SD

Home | Current Version | Previous Version | Graphics & Text | Print | Product List | Glossary On
Versions: 1 2 3 4 5 6 7 8 9 10 11 12 13 14 15 16 17 18 19 20 21 22 23 24 25 26 27 28 29 30 31 32 33 34 35 36 37 38 39 40 41 42 43 44 45 46 47 48 49 50
000
ASUS43 KFSD 242002
RWRFSD

WEATHER ROUNDUP FOR SE SOUTH DAKOTA/SW MINNESOTA/NW IOWA
NATIONAL WEATHER SERVICE SIOUX FALLS SD
300 PM CDT MON JUL 24 2017

NOTE: "FAIR" INDICATES FEW OR NO CLOUDS BELOW 12,000 FEET WITH NO
SIGNIFICANT WEATHER AND OR OBSTRUCTIONS TO VISIBILITY.


SDZ038>040-050-052>070-242100-
SOUTHEAST SOUTH DAKOTA

CITY           SKY/WX    TMP DP  RH WIND       PRES   REMARKS
BROOKINGS      SUNNY     78  63  59 S10G18    29.98S
CHAMBERLAIN    SUNNY     95  67  39 SE18      29.83F HX  99
HURON          CLOUDY    83  65  54 SE17G24   29.87F
MADISON        FAIR      79  66  65 SE14      29.97S
MITCHELL       SUNNY     88  64  44 SE21      29.89F
SIOUX FALLS    MOSUNNY   82  66  58 S14G22    29.96F
WINNER         FAIR      98  62  30 S18G26    29.81F HX  99
YANKTON        SUNNY     86  64  47 SE16G24   29.92F
$$

MNZ071-072-080-081-089-090-097-098-242100-
SOUTHWEST MINNESOTA

CITY           SKY/WX    TMP DP  RH WIND       PRES   REMARKS
FAIRMONT       PTSUNNY   77  62  59 SE12      30.03S
JACKSON        MOSUNNY   77  61  57 E10       30.03F
LUVERNE        SUNNY     79  59  50 SE13      29.99F
MARSHALL       NOT AVBL
MONTEVIDEO     SUNNY     82  63  51 S12       29.99S
PIPESTONE      SUNNY     79  63  57 S13       29.99F
REDWOOD FALLS  MOSUNNY   78  61  55 SE15      30.00F
TRACY          MOSUNNY   78  65  64 SE13      30.01S
WINDOM         SUNNY     77  61  57 SE9       30.02S
WORTHINGTON    MOSUNNY   78  63  59 MISG      30.01F
$$

IAZ001>003-012>014-020>022-031-032-NEZ013-014-SDZ071-242100-
NORTHWEST IOWA

CITY           SKY/WX    TMP DP  RH WIND       PRES   REMARKS
CHEROKEE       SUNNY     81  61  51 SE7       29.99F
DENISON        SUNNY     81  64  57 VRB6G14   30.02S
ESTHERVILLE    MOSUNNY   75  62  64 SE10      30.02F
ORANGE CITY    SUNNY     81  63  54 SE10      29.99S
SHELDON        SUNNY     81  63  54 SE13      29.98S
SIOUX CITY     SUNNY     83  64  52 S12G20    29.97F
SPENCER        MOSUNNY   82  62  50 S12       30.01F
STORM LAKE     SUNNY     79  63  57 SE7G13    30.02F
$$

ABBREVIATIONS USED IN REMARKS
   TC - TEMPERATURE IN CELSIUS
  WCI - WIND CHILL INDEX
   HX - HEAT INDEX
  VSB - VISIBILITY





USA.gov is the U.S. government's official web portal to all federal, state and local government web resources and services.